Regional Weather Roundup
Issued by NWS

Home | Current Version | Previous Version | Graphics & Text | Print | Product List | Glossary On
Versions: 1 2 3 4 5 6 7 8 9 10 11 12 13 14 15 16 17 18 19 20 21 22 23 24 25 26 27 28 29 30 31 32 33 34 35 36 37 38 39 40 41 42 43 44 45 46 47 48 49 50
580
ASUS43 KIND 262109
RWRIN

WEATHER ROUNDUP FOR INDIANA
NATIONAL WEATHER SERVICE INDIANAPOLIS IN
500 PM EDT WED JUL 26 2017

NOTE: "FAIR" INDICATES FEW OR NO CLOUDS BELOW 12,000 FEET WITH NO
SIGNIFICANT WEATHER AND/OR OBSTRUCTIONS TO VISIBILITY.

* - STATION DOES NOT REPORT WEATHER SUCH AS PRECIPITATION OR FOG.

+ - STATION NOT QUALITY CONTROLLED BY THE NATIONAL WEATHER SERVICE.
    USE DATA WITH CAUTION...ESPECIALLY DEWPOINT AND RELATIVE
    HUMIDITY OBSERVATIONS.

INZ001>003-010>013-019-020-262200-
NORTHWEST INDIANA

CITY           SKY/WX    TMP DP  RH WIND       PRES   REMARKS
GARY /AIRPORT/ CLOUDY    84  66  54 SW6       30.02F
KNOX *+        CLOUDY    81  70  69 S5        30.03F
LA PORTE +     MOSUNNY   80  69  70 S5        30.04F
MICHIGAN CITY+ MOSUNNY   81  68  65 S3        30.04F
MONTICELLO +   CLOUDY    81  69  68 SE3       30.03F
RENSSELAER +   CLOUDY    81  70  69 S5        30.04F
VALPARAISO     CLOUDY    84  71  65 SW6       30.04F

$$

LMZ046-743>745-262200-
SOUTHERN LAKE MICHIGAN

STATION/POSITION TIME  TEMP    WIND        PRES    WAVE
                       AIR SEA DIR/SP/G            HT
                 (UTC) (F)     (DEG/KT/KT) (MB)    (FT)
BURNS HARBOR     2040   81     210/  6/ 10 1017.3S
MICHIGAN CITY    2040   81     190/  5/  7   N/A
5NW MICH CITY    2100   79 78   20/  4/  6   N/A     0

$$

INZ004-005-014>016-021>024-262200-
NORTH CENTRAL INDIANA

CITY           SKY/WX    TMP DP  RH WIND       PRES   REMARKS
ELKHART        PTSUNNY   81  63  54 SW6       30.04F
GOSHEN         MOSUNNY   82  62  50 SW10      30.05F
LOGANSPORT +   PTSUNNY   79  68  69 CALM      30.05F
PERU/GRISSOM   PTSUNNY   81  69  66 SW6       30.04F
ROCHESTER +    PTSUNNY   84  68  58 SW5       30.05F
SOUTH BEND     MOSUNNY   82  67  60 S8        30.05F
WARSAW +       PTSUNNY   79  64  61 CALM      30.06F

$$

INZ006>009-017-018-025>027-262200-
NORTHEAST INDIANA

CITY           SKY/WX    TMP DP  RH WIND       PRES   REMARKS
AUBURN +       PTSUNNY   82  59  44 CALM      30.07F
FORT WAYNE     PTSUNNY   81  63  54 S6        30.06F
HUNTINGTON +   MOSUNNY   81  63  55 SW5       30.05F
KENDALLVILLE + MOSUNNY   81  64  57 SW7       30.07F

$$

INZ028-029-035-036-043>045-051>053-262200-
WEST CENTRAL INDIANA

CITY           SKY/WX    TMP DP  RH WIND       PRES   REMARKS
GREENCASTLE +  PTSUNNY   82  70  65 SE5       30.04F
LAFAYETTE      CLOUDY    82  71  69 S3        30.02F
TERRE HAUTE    CLOUDY    88  74  63 S7        30.01F HX  96

$$

INZ030>032-037>040-046>048-054>057-064-065-262200-
CENTRAL INDIANA

CITY           SKY/WX    TMP DP  RH WIND       PRES   REMARKS
CP ATTERBURY + PTSUNNY   82  70  65 SE6       30.05F
COLUMBUS       PTSUNNY   84  68  58 SE6       30.04F
FRANKFORT +    PTSUNNY   84  72  66 CALM      30.07S
GREENWOOD *+   CLOUDY   N/A N/A N/A SE6       30.05F
INDIANAPOLIS   CLOUDY    84  70  62 VRB7      30.03F
-EAGLE CREEK   CLOUDY    85  67  54 S6        30.03F
KOKOMO +       CLOUDY    81  70  69 S8        30.06F
MARION +       PTSUNNY   79  66  65 S5        30.06F
MT COMFORT *+  MOSUNNY   81  70  69 CALM      30.07S
SHELBYVILLE    PTSUNNY   84  68  58 S5        30.04F
ZIONSVILLE +   PTSUNNY   82  69  63 S6        30.05F

$$

INZ033-034-041-042-049-050-058-059-262200-
EAST CENTRAL INDIANA

CITY           SKY/WX    TMP DP  RH WIND       PRES   REMARKS
MUNCIE         PTSUNNY   83  63  50 VRB7      30.06F
RICHMOND +     MOSUNNY   79  68  69 SW5       30.08F

$$

INZ060-061-067>069-081>083-085>088-262200-
SOUTHWEST INDIANA

CITY           SKY/WX    TMP DP  RH WIND       PRES   REMARKS
EVANSVILLE     PTSUNNY   91  75  59 SW9       29.99F HX 101
HUNTINGBURG *+ CLOUDY    90  78  68 S8        30.00F HX 104

$$

INZ062-063-066-070>080-084-089>092-262200-
SOUTH CENTRAL AND SOUTHEAST INDIANA

CITY           SKY/WX    TMP DP  RH WIND       PRES   REMARKS
BEDFORD +      CLOUDY    86  72  62 SE5       30.01F
BLOOMINGTON    CLOUDY    86  71  60 S6        30.03F
MADISON *+     CLOUDY    86  68  54 E5        30.06F
NORTH VERNON + PTSUNNY   84  70  61 E3        30.06F
SEYMOUR +      PTSUNNY   88  70  55 SE6       30.03F

$$





USA.gov is the U.S. government's official web portal to all federal, state and local government web resources and services.